Year,Month,Day,Hour,Minute,Value (Times are PST for temperature in C)
2011,08,19,00,00,13.80
2011,08,19,00,01,13.80
2011,08,19,00,02,13.80
2011,08,19,00,03,13.80
2011,08,19,00,04,13.80
2011,08,19,00,05,13.70
2011,08,19,00,06,13.70
2011,08,19,00,07,13.70
2011,08,19,00,08,13.70
2011,08,19,00,09,13.70
2011,08,19,00,10,13.70
2011,08,19,00,11,13.60
2011,08,19,00,12,13.60
2011,08,19,00,13,13.60
2011,08,19,00,14,13.60
2011,08,19,00,15,13.60
2011,08,19,00,16,13.60
2011,08,19,00,17,13.50
2011,08,19,00,18,13.50
2011,08,19,00,19,13.50
2011,08,19,00,20,13.50
2011,08,19,00,21,13.40
2011,08,19,00,22,13.40
2011,08,19,00,23,13.40
2011,08,19,00,24,13.40
2011,08,19,00,25,13.40
2011,08,19,00,26,13.40
2011,08,19,00,27,13.30
2011,08,19,00,28,13.30
2011,08,19,00,29,13.30
2011,08,19,00,30,13.30
2011,08,19,00,31,13.30
2011,08,19,00,32,13.30
2011,08,19,00,33,13.30
2011,08,19,00,34,13.30
2011,08,19,00,35,13.30
2011,08,19,00,36,13.30
2011,08,19,00,37,13.30
2011,08,19,00,38,13.20
2011,08,19,00,39,13.20
2011,08,19,00,40,13.20
2011,08,19,00,41,13.20
2011,08,19,00,42,13.20
2011,08,19,00,43,13.20
2011,08,19,00,44,13.20
2011,08,19,00,45,13.10
2011,08,19,00,46,13.10
2011,08,19,00,47,13.10
2011,08,19,00,48,13.10
2011,08,19,00,49,13.10
2011,08,19,00,50,13.10
2011,08,19,00,51,13.10
2011,08,19,00,52,13.10
2011,08,19,00,53,13.10
2011,08,19,00,54,13.10
2011,08,19,00,55,13.10
2011,08,19,00,56,13.00
2011,08,19,00,57,13.00
2011,08,19,00,58,13.00
2011,08,19,00,59,13.00
2011,08,19,01,00,13.00
2011,08,19,01,01,13.00
2011,08,19,01,02,12.90
2011,08,19,01,03,12.90
2011,08,19,01,04,12.90
2011,08,19,01,05,12.90
2011,08,19,01,06,12.90
2011,08,19,01,07,12.90
2011,08,19,01,08,12.90
2011,08,19,01,09,12.90
2011,08,19,01,10,12.90
2011,08,19,01,11,12.90
2011,08,19,01,12,12.90
2011,08,19,01,13,12.80
2011,08,19,01,14,12.80
2011,08,19,01,15,12.80
2011,08,19,01,16,12.80
2011,08,19,01,17,12.80
2011,08,19,01,18,12.80
2011,08,19,01,19,12.80
2011,08,19,01,20,12.80
2011,08,19,01,21,12.80
2011,08,19,01,22,12.70
2011,08,19,01,23,12.70
2011,08,19,01,24,12.70
2011,08,19,01,25,12.70
2011,08,19,01,26,12.70
2011,08,19,01,27,12.70
2011,08,19,01,28,12.70
2011,08,19,01,29,12.70
2011,08,19,01,30,12.70
2011,08,19,01,31,12.70
2011,08,19,01,32,12.60
2011,08,19,01,33,12.60
2011,08,19,01,34,12.60
2011,08,19,01,35,12.60
2011,08,19,01,36,12.60
2011,08,19,01,37,12.60
2011,08,19,01,38,12.60
2011,08,19,01,39,12.50
2011,08,19,01,40,12.50
2011,08,19,01,41,12.50
2011,08,19,01,42,12.50
2011,08,19,01,43,12.50
2011,08,19,01,44,12.40
2011,08,19,01,45,12.40
2011,08,19,01,46,12.40
2011,08,19,01,47,12.40
2011,08,19,01,48,12.40
2011,08,19,01,49,12.40
2011,08,19,01,50,12.40
2011,08,19,01,51,12.40
2011,08,19,01,52,12.30
2011,08,19,01,53,12.30
2011,08,19,01,54,12.30
2011,08,19,01,55,12.30
2011,08,19,01,56,12.30
2011,08,19,01,57,12.30
2011,08,19,01,58,12.30
2011,08,19,01,59,12.30
2011,08,19,02,00,12.30
2011,08,19,02,01,12.30
2011,08,19,02,02,12.30
2011,08,19,02,03,12.30
2011,08,19,02,04,12.30
2011,08,19,02,05,12.30
2011,08,19,02,06,12.30
2011,08,19,02,07,12.20
2011,08,19,02,08,12.20
2011,08,19,02,09,12.20
2011,08,19,02,10,12.20
2011,08,19,02,11,12.20
2011,08,19,02,12,12.20
2011,08,19,02,13,12.20
2011,08,19,02,14,12.20
2011,08,19,02,15,12.20
2011,08,19,02,16,12.20
2011,08,19,02,17,12.20
2011,08,19,02,18,12.20
2011,08,19,02,19,12.20
2011,08,19,02,20,12.20
2011,08,19,02,21,12.10
2011,08,19,02,22,12.10
2011,08,19,02,23,12.10
2011,08,19,02,24,12.10
2011,08,19,02,25,12.10
2011,08,19,02,26,12.10
2011,08,19,02,27,12.10
2011,08,19,02,28,12.10
2011,08,19,02,29,12.10
2011,08,19,02,30,12.10
2011,08,19,02,31,12.10
2011,08,19,02,32,12.00
2011,08,19,02,33,12.00
2011,08,19,02,34,12.00
2011,08,19,02,35,12.00
2011,08,19,02,36,12.00
2011,08,19,02,37,12.00
2011,08,19,02,38,12.00
2011,08,19,02,39,11.90
2011,08,19,02,40,11.90
2011,08,19,02,41,11.90
2011,08,19,02,42,11.90
2011,08,19,02,43,11.90
2011,08,19,02,44,11.90
2011,08,19,02,45,11.90
2011,08,19,02,46,11.80
2011,08,19,02,47,11.80
2011,08,19,02,48,11.80
2011,08,19,02,49,11.80
2011,08,19,02,50,11.80
2011,08,19,02,51,11.80
2011,08,19,02,52,11.80
2011,08,19,02,53,11.70
2011,08,19,02,54,11.70
2011,08,19,02,55,11.70
2011,08,19,02,56,11.70
2011,08,19,02,57,11.70
2011,08,19,02,58,11.70
2011,08,19,02,59,11.60
2011,08,19,03,00,11.60
2011,08,19,03,01,11.60
2011,08,19,03,02,11.60
2011,08,19,03,03,11.60
2011,08,19,03,04,11.60
2011,08,19,03,05,11.60
2011,08,19,03,06,11.60
2011,08,19,03,07,11.60
2011,08,19,03,08,11.60
2011,08,19,03,09,11.60
2011,08,19,03,10,11.60
2011,08,19,03,11,11.60
2011,08,19,03,12,11.60
2011,08,19,03,13,11.60
2011,08,19,03,14,11.60
2011,08,19,03,15,11.60
2011,08,19,03,16,11.60
2011,08,19,03,17,11.50
2011,08,19,03,18,11.50
2011,08,19,03,19,11.50
2011,08,19,03,20,11.50
2011,08,19,03,21,11.40
2011,08,19,03,22,11.40
2011,08,19,03,23,11.40
2011,08,19,03,24,11.40
2011,08,19,03,25,11.40
2011,08,19,03,26,11.40
2011,08,19,03,27,11.40
2011,08,19,03,28,11.40
2011,08,19,03,29,11.40
2011,08,19,03,30,11.40
2011,08,19,03,31,11.40
2011,08,19,03,32,11.40
2011,08,19,03,33,11.40
2011,08,19,03,34,11.40
2011,08,19,03,35,11.30
2011,08,19,03,36,11.30
2011,08,19,03,37,11.30
2011,08,19,03,38,11.30
2011,08,19,03,39,11.30
2011,08,19,03,40,11.30
2011,08,19,03,41,11.30
2011,08,19,03,42,11.30
2011,08,19,03,43,11.30
2011,08,19,03,44,11.30
2011,08,19,03,45,11.30
2011,08,19,03,46,11.20
2011,08,19,03,47,11.20
2011,08,19,03,48,11.20
2011,08,19,03,49,11.20
2011,08,19,03,50,11.20
2011,08,19,03,51,11.20
2011,08,19,03,52,11.10
2011,08,19,03,53,11.10
2011,08,19,03,54,11.10
2011,08,19,03,55,11.10
2011,08,19,03,56,11.10
2011,08,19,03,57,11.10
2011,08,19,03,58,11.10
2011,08,19,03,59,11.10
2011,08,19,04,00,11.10
2011,08,19,04,01,11.10
2011,08,19,04,02,11.10
2011,08,19,04,03,11.00
2011,08,19,04,04,11.10
2011,08,19,04,05,11.10
2011,08,19,04,06,11.10
2011,08,19,04,07,11.20
2011,08,19,04,08,11.20
2011,08,19,04,09,11.20
2011,08,19,04,10,11.20
2011,08,19,04,11,11.20
2011,08,19,04,12,11.20
2011,08,19,04,13,11.20
2011,08,19,04,14,11.10
2011,08,19,04,15,11.10
2011,08,19,04,16,11.10
2011,08,19,04,17,11.10
2011,08,19,04,18,11.10
2011,08,19,04,19,11.10
2011,08,19,04,20,11.10
2011,08,19,04,21,11.00
2011,08,19,04,22,11.00
2011,08,19,04,23,11.00
2011,08,19,04,24,11.00
2011,08,19,04,25,11.00
2011,08,19,04,26,11.00
2011,08,19,04,27,11.00
2011,08,19,04,28,11.00
2011,08,19,04,29,10.90
2011,08,19,04,30,10.90
2011,08,19,04,31,10.90
2011,08,19,04,32,10.90
2011,08,19,04,33,10.90
2011,08,19,04,34,10.90
2011,08,19,04,35,10.90
2011,08,19,04,36,10.80
2011,08,19,04,37,10.80
2011,08,19,04,38,10.80
2011,08,19,04,39,10.80
2011,08,19,04,40,10.80
2011,08,19,04,41,10.80
2011,08,19,04,42,10.80
2011,08,19,04,43,10.80
2011,08,19,04,44,10.80
2011,08,19,04,45,10.80
2011,08,19,04,46,10.80
2011,08,19,04,47,10.80
2011,08,19,04,48,10.80
2011,08,19,04,49,10.80
2011,08,19,04,50,10.80
2011,08,19,04,51,10.80
2011,08,19,04,52,10.80
2011,08,19,04,53,10.80
2011,08,19,04,54,10.80
2011,08,19,04,55,10.80
2011,08,19,04,56,10.80
2011,08,19,04,57,10.80
2011,08,19,04,58,10.80
2011,08,19,04,59,10.80
2011,08,19,05,00,10.80
2011,08,19,05,01,10.80
2011,08,19,05,02,10.80
2011,08,19,05,03,10.80
2011,08,19,05,04,10.80
2011,08,19,05,05,10.80
2011,08,19,05,06,10.70
2011,08,19,05,07,10.70
2011,08,19,05,08,10.70
2011,08,19,05,09,10.70
2011,08,19,05,10,10.70
2011,08,19,05,11,10.80
2011,08,19,05,12,10.80
2011,08,19,05,13,10.80
2011,08,19,05,14,10.80
2011,08,19,05,15,10.80
2011,08,19,05,16,10.80
2011,08,19,05,17,10.80
2011,08,19,05,18,10.80
2011,08,19,05,19,10.80
2011,08,19,05,20,10.80
2011,08,19,05,21,10.80
2011,08,19,05,22,10.80
2011,08,19,05,23,10.80
2011,08,19,05,24,10.70
2011,08,19,05,25,10.70
2011,08,19,05,26,10.70
2011,08,19,05,27,10.70
2011,08,19,05,28,10.70
2011,08,19,05,29,10.70
2011,08,19,05,30,10.70
2011,08,19,05,31,10.70
2011,08,19,05,32,10.70
2011,08,19,05,33,10.60
2011,08,19,05,34,10.60
2011,08,19,05,35,10.60
2011,08,19,05,36,10.60
2011,08,19,05,37,10.50
2011,08,19,05,38,10.50
2011,08,19,05,39,10.50
2011,08,19,05,40,10.40
2011,08,19,05,41,10.40
2011,08,19,05,42,10.40
2011,08,19,05,43,10.40
2011,08,19,05,44,10.40
2011,08,19,05,45,10.50
2011,08,19,05,46,10.50
2011,08,19,05,47,10.50
2011,08,19,05,48,10.50
2011,08,19,05,49,10.50
2011,08,19,05,50,10.50
2011,08,19,05,51,10.50
2011,08,19,05,52,10.40
2011,08,19,05,53,10.40
2011,08,19,05,54,10.40
2011,08,19,05,55,10.40
2011,08,19,05,56,10.40
2011,08,19,05,57,10.30
2011,08,19,05,58,10.30
2011,08,19,05,59,10.30
2011,08,19,06,00,10.30
2011,08,19,06,01,10.30
2011,08,19,06,02,10.30
2011,08,19,06,03,10.30
2011,08,19,06,04,10.30
2011,08,19,06,05,10.30
2011,08,19,06,06,10.30
2011,08,19,06,07,10.30
2011,08,19,06,08,10.30
2011,08,19,06,09,10.30
2011,08,19,06,10,10.30
2011,08,19,06,11,10.20
2011,08,19,06,12,10.20
2011,08,19,06,13,10.20
2011,08,19,06,14,10.20
2011,08,19,06,15,10.20
2011,08,19,06,16,10.10
2011,08,19,06,17,10.10
2011,08,19,06,18,10.10
2011,08,19,06,19,10.10
2011,08,19,06,20,10.10
2011,08,19,06,21,10.10
2011,08,19,06,22,10.10
2011,08,19,06,23,10.10
2011,08,19,06,24,10.10
2011,08,19,06,25,10.10
2011,08,19,06,26,10.10
2011,08,19,06,27,10.20
2011,08,19,06,28,10.20
2011,08,19,06,29,10.20
2011,08,19,06,30,10.20
2011,08,19,06,31,10.20
2011,08,19,06,32,10.20
2011,08,19,06,33,10.20
2011,08,19,06,34,10.20
2011,08,19,06,35,10.20
2011,08,19,06,36,10.20
2011,08,19,06,37,10.20
2011,08,19,06,38,10.20
2011,08,19,06,39,10.30
2011,08,19,06,40,10.20
2011,08,19,06,41,10.20
2011,08,19,06,42,10.30
2011,08,19,06,43,10.30
2011,08,19,06,44,10.30
2011,08,19,06,45,10.30
2011,08,19,06,46,10.30
2011,08,19,06,47,10.30
2011,08,19,06,48,10.30
2011,08,19,06,49,10.30
2011,08,19,06,50,10.30
2011,08,19,06,51,10.40
2011,08,19,06,52,10.40
2011,08,19,06,53,10.40
2011,08,19,06,54,10.40
2011,08,19,06,55,10.40
2011,08,19,06,56,10.40
2011,08,19,06,57,10.50
2011,08,19,06,58,10.50
2011,08,19,06,59,10.50
2011,08,19,07,00,10.60
2011,08,19,07,01,10.60
2011,08,19,07,02,10.60
2011,08,19,07,03,10.70
2011,08,19,07,04,10.70
2011,08,19,07,05,10.70
2011,08,19,07,06,10.70
2011,08,19,07,07,10.70
2011,08,19,07,08,10.80
2011,08,19,07,09,10.80
2011,08,19,07,10,10.80
2011,08,19,07,11,10.90
2011,08,19,07,12,10.90
2011,08,19,07,13,11.00
2011,08,19,07,14,11.00
2011,08,19,07,15,11.10
2011,08,19,07,16,11.10
2011,08,19,07,17,11.10
2011,08,19,07,18,11.20
2011,08,19,07,19,11.20
2011,08,19,07,20,11.20
2011,08,19,07,21,11.30
2011,08,19,07,22,11.30
2011,08,19,07,23,11.30
2011,08,19,07,24,11.40
2011,08,19,07,25,11.40
2011,08,19,07,26,11.40
2011,08,19,07,27,11.50
2011,08,19,07,28,11.50
2011,08,19,07,29,11.60
2011,08,19,07,30,11.60
2011,08,19,07,31,11.70
2011,08,19,07,32,11.70
2011,08,19,07,33,11.80
2011,08,19,07,34,11.90
2011,08,19,07,35,12.00
2011,08,19,07,36,12.00
2011,08,19,07,37,12.10
2011,08,19,07,38,12.20
2011,08,19,07,39,12.30
2011,08,19,07,40,12.40
2011,08,19,07,41,12.50
2011,08,19,07,42,12.50
2011,08,19,07,43,12.60
2011,08,19,07,44,12.70
2011,08,19,07,45,12.70
2011,08,19,07,46,12.80
2011,08,19,07,47,12.80
2011,08,19,07,48,12.80
2011,08,19,07,49,12.90
2011,08,19,07,50,12.90
2011,08,19,07,51,12.90
2011,08,19,07,52,13.00
2011,08,19,07,53,13.00
2011,08,19,07,54,13.10
2011,08,19,07,55,13.10
2011,08,19,07,56,13.20
2011,08,19,07,57,13.30
2011,08,19,07,58,13.40
2011,08,19,07,59,13.50
2011,08,19,08,00,13.60
2011,08,19,08,01,13.80
2011,08,19,08,02,13.90
2011,08,19,08,03,14.00
2011,08,19,08,04,14.10
2011,08,19,08,05,14.20
2011,08,19,08,06,14.30
2011,08,19,08,07,14.40
2011,08,19,08,08,14.50
2011,08,19,08,09,14.50
2011,08,19,08,10,14.60
2011,08,19,08,11,14.60
2011,08,19,08,12,14.60
2011,08,19,08,13,14.70
2011,08,19,08,14,14.70
2011,08,19,08,15,14.70
2011,08,19,08,16,14.70
2011,08,19,08,17,14.70
2011,08,19,08,18,14.80
2011,08,19,08,19,14.80
2011,08,19,08,20,14.80
2011,08,19,08,21,14.80
2011,08,19,08,22,14.80
2011,08,19,08,23,14.80
2011,08,19,08,24,14.80
2011,08,19,08,25,14.90
2011,08,19,08,26,14.90
2011,08,19,08,27,14.90
2011,08,19,08,28,14.90
2011,08,19,08,29,14.90
2011,08,19,08,30,14.90
2011,08,19,08,31,14.90
2011,08,19,08,32,14.90
2011,08,19,08,33,14.90
2011,08,19,08,34,14.90
2011,08,19,08,35,14.90
2011,08,19,08,36,14.90
2011,08,19,08,37,14.90
2011,08,19,08,38,14.90
2011,08,19,08,39,14.90
2011,08,19,08,40,14.90
2011,08,19,08,41,14.90
2011,08,19,08,42,14.90
2011,08,19,08,43,15.00
2011,08,19,08,44,15.00
2011,08,19,08,45,15.00
2011,08,19,08,46,15.00
2011,08,19,08,47,15.10
2011,08,19,08,48,15.10
2011,08,19,08,49,15.10
2011,08,19,08,50,15.10
2011,08,19,08,51,15.10
2011,08,19,08,52,15.20
2011,08,19,08,53,15.20
2011,08,19,08,54,15.20
2011,08,19,08,55,15.30
2011,08,19,08,56,15.40
2011,08,19,08,57,15.40
2011,08,19,08,58,15.40
2011,08,19,08,59,15.50
2011,08,19,09,00,15.50
2011,08,19,09,01,15.40
2011,08,19,09,02,15.40
2011,08,19,09,03,15.50
2011,08,19,09,04,15.50
2011,08,19,09,05,15.60
2011,08,19,09,06,15.60
2011,08,19,09,07,15.60
2011,08,19,09,08,15.60
2011,08,19,09,09,15.60
2011,08,19,09,10,15.60
2011,08,19,09,11,15.70
2011,08,19,09,12,15.70
2011,08,19,09,13,15.60
2011,08,19,09,14,15.60
2011,08,19,09,15,15.60
2011,08,19,09,16,15.60
2011,08,19,09,17,15.60
2011,08,19,09,18,15.60
2011,08,19,09,19,15.60
2011,08,19,09,20,15.50
2011,08,19,09,21,15.60
2011,08,19,09,22,15.60
2011,08,19,09,23,15.60
2011,08,19,09,24,15.50
2011,08,19,09,25,15.40
2011,08,19,09,26,15.30
2011,08,19,09,27,15.40
2011,08,19,09,28,15.40
2011,08,19,09,29,15.40
2011,08,19,09,30,15.30
2011,08,19,09,31,15.30
2011,08,19,09,32,15.30
2011,08,19,09,33,15.40
2011,08,19,09,34,15.40
2011,08,19,09,35,15.40
2011,08,19,09,36,15.40
2011,08,19,09,37,15.50
2011,08,19,09,38,15.50
2011,08,19,09,39,15.50
2011,08,19,09,40,15.60
2011,08,19,09,41,15.60
2011,08,19,09,42,15.60
2011,08,19,09,43,15.60
2011,08,19,09,44,15.60
2011,08,19,09,45,15.60
2011,08,19,09,46,15.60
2011,08,19,09,47,15.60
2011,08,19,09,48,15.60
2011,08,19,09,49,15.70
2011,08,19,09,50,15.60
2011,08,19,09,51,15.60
2011,08,19,09,52,15.60
2011,08,19,09,53,15.60
2011,08,19,09,54,15.60
2011,08,19,09,55,15.60
2011,08,19,09,56,15.50
2011,08,19,09,57,15.40
2011,08,19,09,58,15.30
2011,08,19,09,59,15.20
2011,08,19,10,00,15.20
2011,08,19,10,01,15.20
2011,08,19,10,02,15.20
2011,08,19,10,03,15.30
2011,08,19,10,04,15.30
2011,08,19,10,05,15.30
2011,08,19,10,06,15.30
2011,08,19,10,07,15.30
2011,08,19,10,08,15.40
2011,08,19,10,09,15.50
2011,08,19,10,10,15.50
2011,08,19,10,11,15.60
2011,08,19,10,12,15.70
2011,08,19,10,13,15.70
2011,08,19,10,14,15.70
2011,08,19,10,15,15.70
2011,08,19,10,16,15.70
2011,08,19,10,17,15.70
2011,08,19,10,18,15.80
2011,08,19,10,19,15.80
2011,08,19,10,20,15.90
2011,08,19,10,21,15.90
2011,08,19,10,22,15.90
2011,08,19,10,23,15.90
2011,08,19,10,24,15.90
2011,08,19,10,25,15.80
2011,08,19,10,26,15.80
2011,08,19,10,27,15.80
2011,08,19,10,28,15.70
2011,08,19,10,29,15.80
2011,08,19,10,30,15.80
2011,08,19,10,31,15.70
2011,08,19,10,32,15.70
2011,08,19,10,33,15.60
2011,08,19,10,34,15.50
2011,08,19,10,35,15.40
2011,08,19,10,36,15.40
2011,08,19,10,37,15.40
2011,08,19,10,38,15.40
2011,08,19,10,39,15.40
2011,08,19,10,40,15.40
2011,08,19,10,41,15.30
2011,08,19,10,42,15.20
2011,08,19,10,43,15.20
2011,08,19,10,44,15.20
2011,08,19,10,45,15.20
2011,08,19,10,46,15.20
2011,08,19,10,47,15.10
2011,08,19,10,48,15.10
2011,08,19,10,49,15.00
2011,08,19,10,50,15.00
2011,08,19,10,51,14.90
2011,08,19,10,52,15.00
2011,08,19,10,53,15.00
2011,08,19,10,54,14.90
2011,08,19,10,55,14.90
2011,08,19,10,56,14.90
2011,08,19,10,57,14.80
2011,08,19,10,58,14.80
2011,08,19,10,59,14.80
2011,08,19,11,00,14.70
2011,08,19,11,01,14.70
2011,08,19,11,02,14.80
2011,08,19,11,03,14.80
2011,08,19,11,04,14.80
2011,08,19,11,05,14.80
2011,08,19,11,06,14.80
2011,08,19,11,07,14.80
2011,08,19,11,08,14.80
2011,08,19,11,09,14.80
2011,08,19,11,10,14.80
2011,08,19,11,11,14.90
2011,08,19,11,12,15.00
2011,08,19,11,13,15.10
2011,08,19,11,14,15.10
2011,08,19,11,15,15.10
2011,08,19,11,16,15.10
2011,08,19,11,17,15.10
2011,08,19,11,18,15.10
2011,08,19,11,19,15.10
2011,08,19,11,20,15.10
2011,08,19,11,21,15.10
2011,08,19,11,22,15.10
2011,08,19,11,23,15.10
2011,08,19,11,24,15.20
2011,08,19,11,25,15.20
2011,08,19,11,26,15.30
2011,08,19,11,27,15.30
2011,08,19,11,28,15.30
2011,08,19,11,29,15.40
2011,08,19,11,30,15.40
2011,08,19,11,31,15.50
2011,08,19,11,32,15.50
2011,08,19,11,33,15.60
2011,08,19,11,34,15.70
2011,08,19,11,35,15.80
2011,08,19,11,36,15.90
2011,08,19,11,37,15.90
2011,08,19,11,38,15.90
2011,08,19,11,39,15.90
2011,08,19,11,40,15.90
2011,08,19,11,41,15.90
2011,08,19,11,42,15.90
2011,08,19,11,43,15.90
2011,08,19,11,44,15.90
2011,08,19,11,45,15.90
2011,08,19,11,46,15.90
2011,08,19,11,47,16.00
2011,08,19,11,48,16.00
2011,08,19,11,49,16.00
2011,08,19,11,50,16.00
2011,08,19,11,51,16.10
2011,08,19,11,52,16.10
2011,08,19,11,53,16.10
2011,08,19,11,54,16.10
2011,08,19,11,55,16.10
2011,08,19,11,56,16.20
2011,08,19,11,57,16.20
2011,08,19,11,58,16.20
2011,08,19,11,59,16.20
2011,08,19,12,00,16.30
2011,08,19,12,01,16.40
2011,08,19,12,02,16.50
2011,08,19,12,03,16.60
2011,08,19,12,04,16.70
2011,08,19,12,05,16.80
2011,08,19,12,06,16.90
2011,08,19,12,07,17.00
2011,08,19,12,08,17.10
2011,08,19,12,09,17.10
2011,08,19,12,10,17.10
2011,08,19,12,11,17.10
2011,08,19,12,12,17.10
2011,08,19,12,13,17.20
2011,08,19,12,14,17.20
2011,08,19,12,15,17.20
2011,08,19,12,16,17.30
2011,08,19,12,17,17.30
2011,08,19,12,18,17.30
2011,08,19,12,19,17.30
2011,08,19,12,20,17.30
2011,08,19,12,21,17.30
2011,08,19,12,22,17.30
2011,08,19,12,23,17.30
2011,08,19,12,24,17.30
2011,08,19,12,25,17.20
2011,08,19,12,26,17.20
2011,08,19,12,27,17.20
2011,08,19,12,28,17.20
2011,08,19,12,29,17.20
2011,08,19,12,30,17.30
2011,08,19,12,31,17.40
2011,08,19,12,32,17.50
2011,08,19,12,33,17.60
2011,08,19,12,34,17.60
2011,08,19,12,35,17.70
2011,08,19,12,36,17.70
2011,08,19,12,37,17.70
2011,08,19,12,38,17.70
2011,08,19,12,39,17.70
2011,08,19,12,40,17.70
2011,08,19,12,41,17.60
2011,08,19,12,42,17.60
2011,08,19,12,43,17.50
2011,08,19,12,44,17.50
2011,08,19,12,45,17.50
2011,08,19,12,46,17.60
2011,08,19,12,47,17.60
2011,08,19,12,48,17.60
2011,08,19,12,49,17.70
2011,08,19,12,50,17.80
2011,08,19,12,51,17.90
2011,08,19,12,52,17.90
2011,08,19,12,53,18.00
2011,08,19,12,54,18.10
2011,08,19,12,55,18.10
2011,08,19,12,56,18.10
2011,08,19,12,57,18.10
2011,08,19,12,58,18.10
2011,08,19,12,59,18.00
2011,08,19,13,00,18.10
2011,08,19,13,01,18.10
2011,08,19,13,02,18.10
2011,08,19,13,03,18.10
2011,08,19,13,04,18.10
2011,08,19,13,05,18.00
2011,08,19,13,06,18.00
2011,08,19,13,07,18.00
2011,08,19,13,08,18.10
2011,08,19,13,09,18.20
2011,08,19,13,10,18.20
2011,08,19,13,11,18.30
2011,08,19,13,12,18.30
2011,08,19,13,13,18.30
2011,08,19,13,14,18.40
2011,08,19,13,15,18.40
2011,08,19,13,16,18.40
2011,08,19,13,17,18.40
2011,08,19,13,18,18.40
2011,08,19,13,19,18.40
2011,08,19,13,20,18.40
2011,08,19,13,21,18.40
2011,08,19,13,22,18.30
2011,08,19,13,23,18.30
2011,08,19,13,24,18.30
2011,08,19,13,25,18.30
2011,08,19,13,26,18.40
2011,08,19,13,27,18.40
2011,08,19,13,28,18.50
2011,08,19,13,29,18.60
2011,08,19,13,30,18.60
2011,08,19,13,31,18.60
2011,08,19,13,32,18.60
2011,08,19,13,33,18.70
2011,08,19,13,34,18.70
2011,08,19,13,35,18.70
2011,08,19,13,36,18.70
2011,08,19,13,37,18.70
2011,08,19,13,38,18.60
2011,08,19,13,39,18.60
2011,08,19,13,40,18.60
2011,08,19,13,41,18.50
2011,08,19,13,42,18.50
2011,08,19,13,43,18.50
2011,08,19,13,44,18.50
2011,08,19,13,45,18.50
2011,08,19,13,46,18.50
2011,08,19,13,47,18.50
2011,08,19,13,48,18.60
2011,08,19,13,49,18.50
2011,08,19,13,50,18.60
2011,08,19,13,51,18.60
2011,08,19,13,52,18.70
2011,08,19,13,53,18.80
2011,08,19,13,54,18.80
2011,08,19,13,55,18.80
2011,08,19,13,56,18.80
2011,08,19,13,57,18.80
2011,08,19,13,58,18.80
2011,08,19,13,59,18.80
2011,08,19,14,00,18.80
2011,08,19,14,01,18.80
2011,08,19,14,02,18.70
2011,08,19,14,03,18.70
2011,08,19,14,04,18.80
2011,08,19,14,05,18.80
2011,08,19,14,06,18.90
2011,08,19,14,07,18.90
2011,08,19,14,08,19.00
2011,08,19,14,09,19.10
2011,08,19,14,10,19.10
2011,08,19,14,11,19.20
2011,08,19,14,12,19.20
2011,08,19,14,13,19.20
2011,08,19,14,14,19.20
2011,08,19,14,15,19.30
2011,08,19,14,16,19.30
2011,08,19,14,17,19.30
2011,08,19,14,18,19.20
2011,08,19,14,19,19.20
2011,08,19,14,20,19.10
2011,08,19,14,21,19.00
2011,08,19,14,22,18.90
2011,08,19,14,23,18.80
2011,08,19,14,24,18.80
2011,08,19,14,25,18.80
2011,08,19,14,26,18.90
2011,08,19,14,27,18.90
2011,08,19,14,28,18.90
2011,08,19,14,29,18.90
2011,08,19,14,30,18.90
2011,08,19,14,31,19.00
2011,08,19,14,32,19.00
2011,08,19,14,33,19.10
2011,08,19,14,34,19.10
2011,08,19,14,35,19.20
2011,08,19,14,36,19.30
2011,08,19,14,37,19.30
2011,08,19,14,38,19.30
2011,08,19,14,39,19.30
2011,08,19,14,40,19.30
2011,08,19,14,41,19.30
2011,08,19,14,42,19.30
2011,08,19,14,43,19.30
2011,08,19,14,44,19.30
2011,08,19,14,45,19.20
2011,08,19,14,46,19.30
2011,08,19,14,47,19.30
2011,08,19,14,48,19.40
2011,08,19,14,49,19.50
2011,08,19,14,50,19.60
2011,08,19,14,51,19.60
2011,08,19,14,52,19.60
2011,08,19,14,53,19.50
2011,08,19,14,54,19.50
2011,08,19,14,55,19.40
2011,08,19,14,56,19.50
2011,08,19,14,57,19.50
2011,08,19,14,58,19.60
2011,08,19,14,59,19.60
2011,08,19,15,00,19.60
2011,08,19,15,01,19.50
2011,08,19,15,02,19.50
2011,08,19,15,03,19.50
2011,08,19,15,04,19.50
2011,08,19,15,05,19.60
2011,08,19,15,06,19.70
2011,08,19,15,07,19.80
2011,08,19,15,08,19.70
2011,08,19,15,09,19.70
2011,08,19,15,10,19.60
2011,08,19,15,11,19.50
2011,08,19,15,12,19.50
2011,08,19,15,13,19.50
2011,08,19,15,14,19.50
2011,08,19,15,15,19.60
2011,08,19,15,16,19.70
2011,08,19,15,17,19.70
2011,08,19,15,18,19.70
2011,08,19,15,19,19.60
2011,08,19,15,20,19.60
2011,08,19,15,21,19.50
2011,08,19,15,22,19.40
2011,08,19,15,23,19.40
2011,08,19,15,24,19.30
2011,08,19,15,25,19.30
2011,08,19,15,26,19.40
2011,08,19,15,27,19.50
2011,08,19,15,28,19.60
2011,08,19,15,29,19.70
2011,08,19,15,30,19.80
2011,08,19,15,31,19.90
2011,08,19,15,32,20.00
2011,08,19,15,33,20.00
2011,08,19,15,34,20.00
2011,08,19,15,35,20.00
2011,08,19,15,36,20.00
2011,08,19,15,37,20.10
2011,08,19,15,38,20.10
2011,08,19,15,39,20.20
2011,08,19,15,40,20.30
2011,08,19,15,41,20.40
2011,08,19,15,42,20.40
2011,08,19,15,43,20.50
2011,08,19,15,44,20.50
2011,08,19,15,45,20.50
2011,08,19,15,46,20.60
2011,08,19,15,47,20.70
2011,08,19,15,48,20.70
2011,08,19,15,49,20.80
2011,08,19,15,50,20.90
2011,08,19,15,51,20.90
2011,08,19,15,52,21.00
2011,08,19,15,53,21.10
2011,08,19,15,54,21.20
2011,08,19,15,55,21.30
2011,08,19,15,56,21.40
2011,08,19,15,57,21.50
2011,08,19,15,58,21.50
2011,08,19,15,59,21.50
2011,08,19,16,00,21.50
2011,08,19,16,01,21.40
2011,08,19,16,02,21.30
2011,08,19,16,03,21.10
2011,08,19,16,04,21.00
2011,08,19,16,05,20.80
2011,08,19,16,06,20.70
2011,08,19,16,07,20.50
2011,08,19,16,08,20.30
2011,08,19,16,09,20.10
2011,08,19,16,10,20.00
2011,08,19,16,11,19.80
2011,08,19,16,12,19.70
2011,08,19,16,13,19.60
2011,08,19,16,14,19.50
2011,08,19,16,15,19.40
2011,08,19,16,16,19.40
2011,08,19,16,17,19.40
2011,08,19,16,18,19.50
2011,08,19,16,19,19.50
2011,08,19,16,20,19.60
2011,08,19,16,21,19.70
2011,08,19,16,22,19.80
2011,08,19,16,23,19.80
2011,08,19,16,24,19.80
2011,08,19,16,25,19.80
2011,08,19,16,26,19.80
2011,08,19,16,27,19.80
2011,08,19,16,28,19.90
2011,08,19,16,29,19.90
2011,08,19,16,30,19.90
2011,08,19,16,31,20.00
2011,08,19,16,32,20.00
2011,08,19,16,33,20.00
2011,08,19,16,34,20.00
2011,08,19,16,35,19.90
2011,08,19,16,36,19.90
2011,08,19,16,37,19.80
2011,08,19,16,38,19.70
2011,08,19,16,39,19.60
2011,08,19,16,40,19.40
2011,08,19,16,41,19.30
2011,08,19,16,42,19.20
2011,08,19,16,43,19.10
2011,08,19,16,44,19.10
2011,08,19,16,45,19.10
2011,08,19,16,46,19.00
2011,08,19,16,47,19.00
2011,08,19,16,48,19.10
2011,08,19,16,49,19.20
2011,08,19,16,50,19.20
2011,08,19,16,51,19.20
2011,08,19,16,52,19.30
2011,08,19,16,53,19.30
2011,08,19,16,54,19.30
2011,08,19,16,55,19.40
2011,08,19,16,56,19.50
2011,08,19,16,57,19.60
2011,08,19,16,58,19.60
2011,08,19,16,59,19.70
2011,08,19,17,00,19.70
2011,08,19,17,01,19.70
2011,08,19,17,02,19.70
2011,08,19,17,03,19.60
2011,08,19,17,04,19.70
2011,08,19,17,05,19.70
2011,08,19,17,06,19.70
2011,08,19,17,07,19.80
2011,08,19,17,08,19.80
2011,08,19,17,09,19.80
2011,08,19,17,10,19.90
2011,08,19,17,11,19.90
2011,08,19,17,12,19.90
2011,08,19,17,13,20.00
2011,08,19,17,14,20.00
2011,08,19,17,15,20.10
2011,08,19,17,16,20.10
2011,08,19,17,17,20.20
2011,08,19,17,18,20.20
2011,08,19,17,19,20.20